Overview Statistics Trail Chart Weather Telemetry Raw packets
 

This is the latest recevied weather packets stored in our database for station/object W9GWP. If no packets are shown the sender has not sent any weather packets the latest 10 day(s).

<< 1 2 3 4 >>
Time Temp. Humidity Pressure Rain* Wind** Luminosity Snow
1788571462 26.11° C 85% 1040.7 hPa 0 mm - 0 W/m² -
1788570561 26.67° C 84% 1040.4 hPa 0 mm - 0 W/m² -
1788569660 28.33° C 84% 1039.7 hPa 0 mm - 0 W/m² -
1788568756 28.33° C 84% 1039.5 hPa 0 mm - 0 W/m² -
1788567853 28.89° C 84% 1039.5 hPa 0 mm - 0 W/m² -
1788566949 28.89° C 83% 1039.7 hPa 0 mm - 0 W/m² -
1788566048 30° C 80% 1039.1 hPa 0 mm - 9 W/m² -
1788565144 30.56° C 77% 1038.7 hPa 0 mm - 18 W/m² -
1788564243 31.11° C 75% 1039 hPa 0 mm - 35 W/m² -
1788563341 31.67° C 71% 1039 hPa 0 mm - 91 W/m² -
1788562439 31.67° C 70% 1038.9 hPa 0 mm - 143 W/m² -
1788561534 32.78° C 69% 1039.2 hPa 0 mm - 164 W/m² -
1788560630 32.78° C 67% 1038.9 hPa 0 mm - 245 W/m² -
1788559726 32.78° C 67% 1039.2 hPa 0 mm - 307 W/m² -
1788558822 32.78° C 66% 1038.9 hPa 0 mm - 333 W/m² -
1788557918 32.78° C 65% 1039 hPa 0 mm - 395 W/m² -
1788557015 32.22° C 65% 1039.2 hPa 0 mm - 472 W/m² -
1788556112 32.22° C 66% 1039 hPa 0 mm - 437 W/m² -
1788555209 30.56° C 70% 1039 hPa 0 mm - 460 W/m² -
1788554309 31.67° C 68% 1039 hPa 0 mm - 157 W/m² -
1788553409 31.67° C 66% 1039.4 hPa 0 mm - 547 W/m² -
1788552506 31.67° C 67% 1039.4 hPa 0 mm - 566 W/m² -
1788551603 30.56° C 69% 1039.7 hPa 0 mm - 257 W/m² -
1788550698 30.56° C 69% 1039.7 hPa 0 mm - 453 W/m² -
1788549795 30° C 70% 1040.3 hPa 0 mm - 596 W/m² -

* Rain latest hour (hover to see other rain measurements)
** Current wind speed in m/s (hover to see current wind gust speed)